This is the latest recevied weather packets stored in our database for station/object KE8DDT-7. If no packets are shown the sender has not sent any weather packets the latest 10 day(s).
| Time | Temp. | Humidity | Pressure | Rain* | Wind** | Luminosity | Snow |
|---|---|---|---|---|---|---|---|
| 1788368812 | 32.78° C | 61% | 1007.2 hPa | 0 mm | - | 780 W/m² | - |
| 1788368212 | 32.78° C | 63% | 1007.5 hPa | 0 mm | - | 840 W/m² | - |
| 1788367912 | 32.78° C | 63% | 1007.5 hPa | 0 mm | - | 851 W/m² | - |
| 1788367612 | 32.22° C | 63% | 1007.5 hPa | 0 mm | - | 819 W/m² | - |
| 1788367312 | 32.22° C | 64% | 1007.6 hPa | 0 mm | - | 795 W/m² | - |
| 1788366819 | 32.22° C | 64% | 1007.5 hPa | 0 mm | - | 810 W/m² | - |
| 1788366519 | 32.22° C | 64% | 1007.6 hPa | 0 mm | - | 775 W/m² | - |
| 1788366219 | 32.22° C | 65% | 1007.5 hPa | 0 mm | - | 749 W/m² | - |
| 1788365619 | 31.67° C | 66% | 1007.4 hPa | 0 mm | - | 761 W/m² | - |
| 1788365319 | 31.67° C | 67% | 1007.4 hPa | 0 mm | - | 738 W/m² | - |
| 1788365019 | 31.11° C | 66% | 1007.4 hPa | 0 mm | - | 752 W/m² | - |
| 1788364719 | 31.11° C | 68% | 1007.4 hPa | 0 mm | - | 744 W/m² | - |
| 1788364119 | 30.56° C | 67% | 1007.5 hPa | 0 mm | - | 671 W/m² | - |
| 1788363615 | 31.11° C | 69% | 1007.4 hPa | 0 mm | - | 640 W/m² | - |
| 1788363314 | 30.56° C | 68% | 1007.5 hPa | 0 mm | - | 657 W/m² | - |
| 1788363015 | 30.56° C | 70% | 1007.5 hPa | 0 mm | - | 640 W/m² | - |
| 1788362715 | 30.56° C | 69% | 1007.5 hPa | 0 mm | - | 675 W/m² | - |
| 1788362414 | 30.56° C | 70% | 1007.5 hPa | 0 mm | - | 742 W/m² | - |
| 1788362115 | 30.56° C | 70% | 1007.6 hPa | 0 mm | - | 529 W/m² | - |
| 1788361814 | 30.56° C | 71% | 1007.5 hPa | 0 mm | - | 584 W/m² | - |
| 1788361514 | 30° C | 71% | 1007.5 hPa | 0 mm | - | 622 W/m² | - |
| 1788361214 | 30° C | 71% | 1007.5 hPa | 0 mm | - | 617 W/m² | - |
| 1788360915 | 30° C | 71% | 1007.5 hPa | 0 mm | - | 592 W/m² | - |
| 1788360342 | 29.44° C | 74% | 1007.4 hPa | 0 mm | - | 598 W/m² | - |
| 1788360042 | 29.44° C | 73% | 1007.3 hPa | 0 mm | - | 563 W/m² | - |
* Rain latest hour (hover to see other rain measurements)
** Current wind speed in m/s (hover to see current wind gust speed)